This is the latest recevied weather packets stored in our database for station/object DK0KTL-4. If no packets are shown the sender has not sent any weather packets the latest 10 day(s).
| Time | Temp. | Humidity | Pressure | Rain* | Wind** | Luminosity | Snow |
|---|---|---|---|---|---|---|---|
| 1777651834 | 25° C | 35% | 1025.3 hPa | 0 mm | - | - | - |
| 1777650933 | 24.44° C | 34% | 1025.5 hPa | 0 mm | - | - | - |
| 1777650633 | 25° C | 31% | 1025.6 hPa | 0 mm | - | - | - |
| 1777649732 | 25° C | 33% | 1025.6 hPa | 0 mm | - | - | - |
| 1777649131 | 25° C | 32% | 1025.7 hPa | 0 mm | - | - | - |
| 1777648230 | 25° C | 32% | 1026 hPa | 0 mm | - | - | - |
| 1777647630 | 25° C | 32% | 1026 hPa | 0 mm | - | - | - |
| 1777646128 | 25.56° C | 32% | 1026.3 hPa | 0 mm | - | - | - |
| 1777645228 | 25.56° C | 34% | 1026.4 hPa | 0 mm | - | - | - |
| 1777644026 | 25° C | 33% | 1026.7 hPa | 0 mm | - | - | - |
| 1777642825 | 24.44° C | 33% | 1026.9 hPa | 0 mm | - | - | - |
| 1777642525 | 24.44° C | 31% | 1026.8 hPa | 0 mm | - | - | - |
| 1777642225 | 23.89° C | 37% | 1026.8 hPa | 0 mm | - | - | - |
| 1777641924 | 23.89° C | 31% | 1026.7 hPa | 0 mm | - | - | - |
| 1777641324 | 24.44° C | 31% | 1026.9 hPa | 0 mm | - | - | - |
| 1777637720 | 22.78° C | 36% | 1027.5 hPa | 0 mm | - | - | - |
| 1777635318 | 21.67° C | 37% | 1028 hPa | 0 mm | - | - | - |
| 1777631714 | 20.56° C | 39% | 1028.6 hPa | 0 mm | - | - | - |
| 1777630513 | 19.44° C | 43% | 1028.8 hPa | 0 mm | - | - | - |
| 1777630213 | 19.44° C | 41% | 1028.8 hPa | 0 mm | - | - | - |
| 1777628411 | 19.44° C | 42% | 1028.9 hPa | 0 mm | - | - | - |
| 1777627811 | 19.44° C | 42% | 1029 hPa | 0 mm | - | - | - |
| 1777626610 | 18.33° C | 45% | 1029.1 hPa | 0 mm | - | - | - |
| 1777619402 | 7.78° C | 70% | 1029.7 hPa | 0 mm | - | - | - |
| 1777618502 | 6.67° C | 74% | 1029.6 hPa | 0 mm | - | - | - |
* Rain latest hour (hover to see other rain measurements)
** Current wind speed in m/s (hover to see current wind gust speed)